Total_Precipitation_Accumulation
0.07 0.14 0.36 0.59 1.03 1.79 1.65 1.05 0.54 0.34 0.32 0.39 0.46 0.49 0.55 0.58 0.80 1.36 1.17 0.86 0.56 0.60 0.67 0.78 0.94 0.86 0.82 0.90 0.92 0.93 0.98 0.97 0.93 0.91 0.94 0.98 1.00 0.97 0.99 0.98 0.90 0.89 0.89 0.79 0.71 0.64 0.57 0.53 0.52
0.11 0.24 0.46 0.66 1.37 1.85 1.37 1.17 0.49 0.30 0.24 0.33 0.41 0.46 0.52 0.51 0.39 0.59 0.92 0.82 0.55 0.54 0.52 0.47 0.68 0.70 0.73 0.85 0.91 1.03 1.03 0.97 0.89 0.90 0.90 0.92 1.04 1.03 0.94 0.86 0.81 0.83 0.77 0.70 0.61 0.54 0.46 0.44 0.42
0.14 0.30 0.46 0.65 1.00 1.11 0.76 0.60 0.31 0.27 0.27 0.30 0.38 0.41 0.46 0.61 0.49 0.63 0.74 0.58 0.50 0.47 0.49 0.55 0.65 0.64 0.73 0.82 0.90 0.97 0.87 0.81 0.83 0.86 0.88 0.96 0.97 0.92 0.86 0.80 0.78 0.77 0.69 0.61 0.52 0.48 0.44 0.43 0.45
0.14 0.26 0.35 0.48 0.50 0.54 0.46 0.33 0.23 0.21 0.23 0.30 0.34 0.38 0.52 0.54 0.43 0.61 0.66 0.60 0.44 0.40 0.46 0.51 0.58 0.63 0.68 0.69 0.74 0.84 0.86 0.80 0.81 0.80 0.84 0.86 0.87 0.90 0.80 0.72 0.70 0.70 0.66 0.58 0.55 0.48 0.45 0.46 0.51
0.14 0.27 0.38 0.38 0.32 0.40 0.39 0.30 0.24 0.19 0.18 0.30 0.41 0.57 0.72 0.62 0.46 0.64 0.67 0.65 0.50 0.43 0.49 0.49 0.61 0.67 0.66 0.64 0.66 0.70 0.76 0.79 0.81 0.78 0.78 0.79 0.78 0.79 0.72 0.65 0.61 0.63 0.58 0.53 0.53 0.49 0.50 0.54 0.57
0.14 0.27 0.27 0.24 0.25 0.31 0.30 0.21 0.19 0.19 0.24 0.29 0.43 0.71 0.95 0.86 0.62 0.64 0.71 0.62 0.60 0.61 0.63 0.61 0.70 0.71 0.70 0.66 0.67 0.64 0.64 0.67 0.65 0.64 0.67 0.67 0.63 0.65 0.69 0.69 0.59 0.55 0.51 0.49 0.50 0.49 0.53 0.59 0.64
0.12 0.19 0.17 0.14 0.18 0.25 0.25 0.18 0.17 0.15 0.20 0.32 0.41 0.76 1.10 1.23 0.91 0.75 0.81 0.87 0.95 0.88 0.76 0.74 0.82 0.83 0.76 0.84 0.78 0.70 0.63 0.62 0.62 0.60 0.63 0.62 0.57 0.56 0.61 0.72 0.66 0.54 0.54 0.55 0.55 0.55 0.57 0.61 0.69
0.05 0.08 0.13 0.13 0.10 0.19 0.21 0.19 0.16 0.16 0.19 0.28 0.39 0.65 1.08 1.06 0.79 0.82 1.13 1.26 1.46 1.36 1.14 1.01 0.96 0.87 0.81 0.80 0.80 0.76 0.70 0.65 0.64 0.61 0.56 0.61 0.60 0.57 0.64 0.70 0.71 0.63 0.64 0.75 0.73 0.71 0.70 0.68 0.67
0.04 0.05 0.10 0.09 0.07 0.11 0.13 0.15 0.15 0.14 0.17 0.35 0.49 0.63 0.86 0.79 0.73 0.83 1.44 1.64 1.72 1.64 1.51 1.27 1.05 0.96 0.94 0.81 0.75 0.85 0.83 0.79 0.78 0.77 0.73 0.86 0.97 0.84 0.90 0.85 0.93 0.90 0.89 1.00 1.05 1.07 1.02 0.92 0.82
0.03 0.03 0.05 0.04 0.04 0.06 0.10 0.14 0.15 0.16 0.31 0.66 0.90 0.89 0.86 0.82 0.96 1.19 1.61 1.65 1.80 1.88 1.64 1.49 1.28 1.06 0.93 0.81 0.93 1.18 0.99 1.01 1.09 1.15 1.15 1.37 1.57 1.54 1.02 1.06 1.33 1.41 1.47 1.53 1.59 1.65 1.41 1.19 1.13
0.02 0.03 0.02 0.03 0.02 0.04 0.07 0.13 0.15 0.18 0.53 0.97 1.28 1.10 0.98 1.06 1.19 1.48 1.90 2.13 2.09 2.18 1.93 1.74 1.48 1.21 1.05 1.10 1.00 1.15 1.31 1.41 1.44 1.43 1.45 1.62 1.51 1.28 1.13 1.26 1.54 1.78 1.87 1.86 2.10 2.10 1.76 1.80 2.04
0.02 0.02 0.01 0.01 0.02 0.03 0.06 0.10 0.15 0.25 0.50 0.69 0.87 1.03 1.13 1.30 1.58 1.84 2.01 2.25 2.25 2.31 2.18 2.16 1.75 1.58 1.63 1.44 1.17 1.09 1.12 1.25 1.44 1.67 1.63 1.74 1.96 1.84 1.75 1.83 1.86 1.99 2.22 2.61 2.52 2.63 2.47 2.43 2.34
0.01 0.02 0.02 0.01 0.02 0.04 0.05 0.08 0.18 0.33 0.43 0.53 0.85 1.19 1.44 1.48 1.81 2.13 2.25 2.53 2.37 2.32 2.34 2.34 2.13 1.96 2.04 1.82 1.60 1.35 1.46 1.48 1.55 1.67 1.82 1.78 2.06 2.25 2.21 2.17 2.12 2.00 2.11 2.32 2.53 2.55 2.90 3.02 2.63
0.01 0.01 0.01 0.02 0.03 0.05 0.08 0.14 0.24 0.38 0.54 0.72 0.95 1.22 1.52 1.79 2.00 2.12 2.51 2.71 2.71 2.61 2.67 2.47 2.36 2.35 2.35 2.28 2.21 2.09 1.83 1.90 1.81 1.76 1.77 1.83 2.08 2.38 2.50 2.36 2.32 2.16 2.15 2.30 2.49 2.64 3.14 3.13 2.93
0.01 0.02 0.03 0.04 0.06 0.08 0.12 0.29 0.44 0.56 0.63 0.78 0.99 1.13 1.47 1.98 2.25 2.28 2.56 2.69 2.63 2.97 3.02 3.01 2.96 3.07 2.99 2.83 2.69 2.48 2.29 2.14 2.10 2.16 2.17 2.06 2.12 2.38 2.42 2.25 2.15 2.18 2.34 2.53 2.54 2.67 2.96 2.72 2.71
0.02 0.09 0.12 0.12 0.10 0.11 0.18 0.50 0.60 0.67 0.68 0.87 1.06 1.23 1.54 1.83 2.18 2.33 2.61 2.79 2.83 3.18 3.35 3.53 3.51 3.51 3.35 3.34 3.26 3.00 2.77 2.60 2.42 2.36 2.41 2.25 2.20 2.26 2.46 2.27 2.11 2.41 2.46 2.58 2.85 2.97 2.97 2.91 2.91
0.06 0.07 0.09 0.12 0.10 0.09 0.16 0.42 0.53 0.70 0.91 1.08 1.26 1.41 1.45 1.74 2.06 2.43 2.72 3.06 3.32 3.63 3.89 4.08 4.07 3.91 3.65 3.68 3.65 3.49 3.32 2.99 2.63 2.49 2.40 2.27 2.23 2.33 2.59 2.57 2.66 2.71 2.77 2.81 2.68 3.06 3.09 2.95 2.98
0.05 0.07 0.08 0.12 0.11 0.11 0.22 0.47 0.58 0.76 1.00 1.04 1.30 1.47 1.55 1.65 2.10 2.55 2.77 3.18 3.65 4.13 4.53 4.38 4.27 4.44 4.31 4.15 4.00 3.72 3.27 2.85 2.71 2.67 2.48 2.34 2.37 2.45 2.83 2.69 2.70 2.75 2.90 2.96 2.93 3.01 3.02 2.74 2.73
0.05 0.07 0.10 0.13 0.12 0.15 0.28 0.55 0.80 0.90 1.17 1.13 1.15 1.31 1.46 1.61 1.91 2.33 2.64 3.20 3.81 4.18 4.57 4.72 4.73 4.61 4.41 4.01 3.68 3.43 3.20 3.02 2.77 2.61 2.55 2.43 2.30 2.45 2.85 2.72 2.93 2.88 2.87 2.88 2.91 2.98 2.88 2.51 2.68
0.06 0.08 0.10 0.15 0.16 0.21 0.39 0.61 0.90 0.91 0.99 1.04 0.96 0.99 1.18 1.55 1.81 2.34 2.64 2.85 3.32 3.83 4.29 4.59 4.73 4.62 4.22 3.82 3.60 3.46 3.39 3.02 2.73 2.69 2.78 2.62 2.61 2.65 2.68 2.86 2.83 2.88 2.97 2.90 2.86 2.94 2.76 2.35 2.53
0.07 0.08 0.10 0.11 0.14 0.28 0.42 0.83 1.09 0.98 0.93 0.95 0.94 0.99 1.17 1.63 2.08 2.34 2.53 2.70 2.98 3.37 3.68 3.80 3.95 3.92 3.76 3.78 3.77 3.69 3.64 3.18 3.06 3.05 3.03 2.85 2.83 2.84 2.84 2.83 2.76 2.74 2.57 2.60 2.64 2.66 2.68 2.55 2.43
0.09 0.07 0.06 0.08 0.15 0.36 0.44 0.94 1.35 1.18 1.03 1.08 1.13 1.08 1.35 1.68 1.72 1.87 2.18 2.50 2.68 2.91 3.26 3.49 3.55 3.50 3.41 3.50 3.54 3.41 3.21 3.04 3.13 3.39 3.34 3.07 2.84 2.67 2.47 2.42 2.52 2.51 2.35 2.37 2.08 2.20 2.38 2.37 2.21
0.08 0.07 0.07 0.10 0.17 0.34 0.45 0.72 1.25 1.27 1.26 1.15 1.17 1.28 1.49 1.52 1.46 1.57 1.77 2.10 2.21 2.52 2.81 3.06 3.32 3.41 3.36 3.40 3.33 3.34 3.21 3.20 3.23 3.18 3.16 2.93 2.72 2.40 2.08 2.06 2.18 2.17 2.10 2.02 1.96 2.13 2.02 1.94 1.94
0.06 0.08 0.13 0.20 0.32 0.67 0.55 0.57 1.03 1.20 1.04 0.98 1.08 1.11 1.30 1.31 1.31 1.50 1.65 1.88 2.01 2.16 2.28 2.41 2.63 2.91 3.08 3.14 3.12 3.14 3.08 3.06 2.98 2.87 2.73 2.52 2.35 2.08 1.81 1.70 1.86 1.99 2.01 1.97 1.95 2.03 1.93 1.92 2.04
0.06 0.11 0.41 0.76 0.99 1.05 0.57 0.62 1.07 0.94 0.74 0.76 0.95 1.00 1.06 1.04 1.02 1.24 1.37 1.48 1.62 1.75 1.85 1.97 2.17 2.51 2.68 2.68 2.67 2.78 2.82 2.84 2.75 2.71 2.55 2.33 2.10 1.81 1.73 1.74 1.83 1.89 1.94 1.83 1.89 1.95 1.98 2.10 2.15
0.09 0.11 0.36 0.65 0.78 0.84 0.69 1.03 1.47 0.98 0.76 0.81 0.86 0.86 0.85 0.81 0.79 0.94 1.15 1.36 1.42 1.46 1.58 1.73 1.95 2.18 2.29 2.24 2.38 2.58 2.65 2.74 2.63 2.65 2.42 2.16 1.95 1.84 1.89 1.87 1.76 1.71 1.79 1.70 1.94 1.87 1.92 2.08 2.10
0.10 0.09 0.15 0.29 0.39 0.63 0.88 1.16 1.20 0.74 0.65 0.75 0.77 0.79 0.90 0.84 0.76 0.82 0.91 1.08 1.13 1.19 1.32 1.46 1.82 2.10 2.20 2.24 2.38 2.48 2.55 2.54 2.44 2.35 2.18 1.98 1.97 1.91 2.01 1.98 1.88 1.78 1.84 1.96 2.21 2.13 2.10 2.28 2.22
0.10 0.12 0.17 0.24 0.40 0.63 0.86 1.15 1.27 0.90 0.72 0.54 0.50 0.54 0.55 0.55 0.55 0.62 0.67 0.77 0.90 1.12 1.37 1.53 1.66 1.96 2.08 2.09 2.17 2.20 2.37 2.33 2.22 2.15 1.98 1.82 1.72 1.76 1.92 2.05 1.99 1.93 1.96 2.12 2.28 2.27 2.42 2.55 2.48
0.13 0.12 0.14 0.18 0.25 0.44 0.87 1.08 0.85 0.71 0.59 0.55 0.52 0.56 0.48 0.42 0.45 0.51 0.64 0.78 0.95 1.11 1.29 1.36 1.41 1.57 1.71 1.81 1.99 1.97 1.96 2.06 2.12 1.99 1.77 1.70 1.67 1.71 1.78 1.97 2.04 2.01 2.04 2.15 2.20 2.18 2.46 2.56 2.54
0.14 0.12 0.14 0.18 0.19 0.28 0.50 0.71 0.56 0.62 0.61 0.53 0.56 0.62 0.61 0.57 0.51 0.55 0.73 0.89 1.02 1.17 1.20 1.19 1.24 1.38 1.53 1.70 1.90 1.98 1.98 2.02 2.01 1.88 1.70 1.66 1.67 1.74 1.82 1.94 1.95 1.87 1.88 2.07 2.12 2.19 2.42 2.51 2.41